Weather History for Watford City, ND

Change the Weather History Date:

Tuesday, May 7, 2013

  Actual Average (KISN) Record (KISN)
Temperature  
Mean Temperature 57 °F 51 °F  
Max Temperature 75 °F 65 °F 91 °F (1992)
Min Temperature 39 °F 37 °F 19 °F (1980)
Degree Days  
Heating Degree Days 8 14  
Month to date heating degree days 104  
Since 1 July heating degree days 8629  
Cooling Degree Days 0 0  
Month to date cooling degree days 0  
Year to date cooling degree days 1  
Growing Degree Days 7 (Base 50)    
Moisture  
Dew Point 28 °F    
Average Humidity 36    
Maximum Humidity 66    
Minimum Humidity 15    
Precipitation  
Precipitation 0.00 in 0.05 in 0.81 in (1940)
Month to date precipitation 0.34  
Year to date precipitation 3.03  
Sea Level Pressure  
Sea Level Pressure 29.88 in    
Wind  
Wind Speed 7 mph (ESE)    
Max Wind Speed 14 mph    
Max Gust Speed 16 mph    
Visibility 10 miles    
Events      
T = Trace of Precipitation, MM = Missing Value Source: NWS Daily Summary

Daily Weather History Graph

Daily Weather History Graph

Search for Another Location

Airport:

Trip Planner

Search our weather history database for the weather conditions in past years. The results will help you decide how hot, cold, wet, or windy it might be!

Date:

Astronomy

May. 07, 2013 Rise Set
Actual Time 6:25 AM CDT 9:14 PM CDT
Civil Twilight 5:50 AM CDT 9:50 PM CDT
Nautical Twilight 5:04 AM CDT 10:35 PM CDT
Astronomical Twilight 4:10 AM CDT 11:30 PM CDT
Moon 5:10 AM CDT (5/7) 7:08 PM CDT (5/7)
Length of Visible Light 16h 00m
Length of Day
14h 48m
Waning Crescent, 5% of the Moon is Illuminated
May 7
Waning Crescent
May 9
New
May 17
First Quarter
May 24
Full
May 31
Last Quarter

Hourly Weather History & Observations

Time (CDT) Temp. Windchill Dew Point Humidity Pressure Visibility Wind Dir Wind Speed Gust Speed Precip Events Conditions
12:15 AM 53.6 °F - 28.4 °F 38% 29.96 in 10.0 mi SE 13.8 mph - N/A   Clear
12:35 AM 53.6 °F - 28.4 °F 38% 29.95 in 10.0 mi SE 13.8 mph - N/A   Clear
12:55 AM 50.0 °F - 28.4 °F 43% 29.96 in 10.0 mi SE 11.5 mph - N/A   Clear
1:15 AM 48.2 °F - 28.4 °F 46% 29.96 in 10.0 mi SSW 3.5 mph - N/A   Clear
1:35 AM 46.4 °F - 28.4 °F 50% 29.96 in 10.0 mi Calm Calm - N/A   Clear
1:55 AM 44.6 °F - 28.4 °F 53% 29.96 in 10.0 mi Calm Calm - N/A   Clear
2:15 AM 44.6 °F - 26.6 °F 49% 29.95 in 10.0 mi Calm Calm - N/A   Clear
2:35 AM 44.6 °F - 30.2 °F 57% 29.95 in 10.0 mi Calm Calm - N/A   Clear
3:15 AM 41.0 °F 39.0 °F 28.4 °F 61% 29.94 in 10.0 mi SE 3.5 mph - N/A   Clear
3:35 AM 41.0 °F 38.0 °F 28.4 °F 61% 29.94 in 10.0 mi SE 4.6 mph - N/A   Clear
3:55 AM 39.2 °F 35.9 °F 28.4 °F 65% 29.93 in 10.0 mi ESE 4.6 mph - N/A   Clear
4:15 AM 39.2 °F - 28.4 °F 65% 29.93 in 10.0 mi Calm Calm - N/A   Clear
4:35 AM 39.2 °F 35.0 °F 28.4 °F 65% 29.93 in 10.0 mi SE 5.8 mph - N/A   Clear
4:55 AM 39.2 °F 35.0 °F 28.4 °F 65% 29.93 in 10.0 mi ESE 5.8 mph - N/A   Clear
5:15 AM 39.2 °F 33.6 °F 28.4 °F 65% 29.92 in 10.0 mi SE 8.1 mph - N/A   Clear
5:35 AM 39.2 °F 34.2 °F 28.4 °F 65% 29.92 in 10.0 mi ESE 6.9 mph - N/A   Clear
5:55 AM 39.2 °F 33.6 °F 28.4 °F 65% 29.92 in 10.0 mi SE 8.1 mph - N/A   Clear
6:15 AM 39.2 °F 33.6 °F 28.4 °F 65% 29.92 in 10.0 mi ESE 8.1 mph - N/A   Clear
6:35 AM 39.2 °F 33.6 °F 28.4 °F 65% 29.92 in 10.0 mi ESE 8.1 mph - N/A   Clear
6:55 AM 39.2 °F 35.9 °F 28.4 °F 65% 29.92 in 9.0 mi SE 4.6 mph - N/A   Clear
7:15 AM 41.0 °F 38.0 °F 30.2 °F 65% 29.91 in 10.0 mi SE 4.6 mph - N/A   Clear
7:35 AM 42.8 °F 40.1 °F 32.0 °F 66% 29.92 in 9.0 mi SE 4.6 mph - N/A   Clear
7:55 AM 44.6 °F 42.2 °F 32.0 °F 61% 29.92 in 6.0 mi SE 4.6 mph - N/A   Haze
8:15 AM 48.2 °F - 32.0 °F 54% 29.91 in 10.0 mi SE 6.9 mph - N/A   Clear
8:35 AM 50.0 °F - 32.0 °F 50% 29.91 in 10.0 mi ESE 6.9 mph - N/A   Clear
8:55 AM 53.6 °F - 33.8 °F 47% 29.91 in 10.0 mi ESE 5.8 mph - N/A   Clear
9:15 AM 55.4 °F - 35.6 °F 47% 29.90 in 10.0 mi ESE 4.6 mph - N/A   Clear
9:35 AM 59.0 °F - 35.6 °F 42% 29.90 in 10.0 mi SE 5.8 mph - N/A   Clear
9:55 AM 62.6 °F - 35.6 °F 37% 29.90 in 10.0 mi East 4.6 mph - N/A   Clear
10:15 AM 64.4 °F - 33.8 °F 32% 29.90 in 10.0 mi East 4.6 mph - N/A   Clear
10:35 AM 66.2 °F - 32.0 °F 28% 29.89 in 10.0 mi South 4.6 mph - N/A   Clear
10:55 AM 68.0 °F - 30.2 °F 24% 29.89 in 10.0 mi South 5.8 mph - N/A   Clear
11:15 AM 68.0 °F - 28.4 °F 23% 29.88 in 10.0 mi South 11.5 mph - N/A   Clear
11:35 AM 68.0 °F - 26.6 °F 21% 29.88 in 10.0 mi SSE 8.1 mph - N/A   Clear
11:55 AM 68.0 °F - 26.6 °F 21% 29.88 in 10.0 mi South 8.1 mph - N/A   Clear
12:15 PM 69.8 °F - 28.4 °F 21% 29.87 in 10.0 mi SSE 6.9 mph - N/A   Clear
12:35 PM 71.6 °F - 28.4 °F 20% 29.87 in 10.0 mi SSE 9.2 mph - N/A   Clear
12:55 PM 71.6 °F - 26.6 °F 19% 29.86 in 10.0 mi SE 6.9 mph - N/A   Clear
1:15 PM 71.6 °F - 26.6 °F 19% 29.86 in 10.0 mi South 9.2 mph 16.1 mph N/A   Clear
1:35 PM 71.6 °F - 26.6 °F 19% 29.85 in 10.0 mi SSE 10.4 mph - N/A   Clear
1:55 PM 71.6 °F - 26.6 °F 19% 29.85 in 10.0 mi ESE 4.6 mph - N/A   Clear
2:15 PM 73.4 °F - 26.6 °F 18% 29.84 in 10.0 mi ESE 5.8 mph - N/A   Clear
2:35 PM 73.4 °F - 26.6 °F 18% 29.84 in 10.0 mi East 12.7 mph - N/A   Clear
2:55 PM 73.4 °F - 26.6 °F 18% 29.84 in 10.0 mi SW 6.9 mph - N/A   Clear
3:15 PM 75.2 °F - 26.6 °F 17% 29.83 in 10.0 mi SW 4.6 mph - N/A   Clear
3:35 PM 75.2 °F - 24.8 °F 15% 29.83 in 10.0 mi WSW 6.9 mph - N/A   Clear
3:55 PM 75.2 °F - 26.6 °F 17% 29.83 in 10.0 mi SSE 6.9 mph - N/A   Clear
4:15 PM 75.2 °F - 26.6 °F 17% 29.82 in 10.0 mi SW 5.8 mph - N/A   Clear
4:35 PM 75.2 °F - 26.6 °F 17% 29.82 in 10.0 mi NNE 6.9 mph - N/A   Clear
4:55 PM 75.2 °F - 26.6 °F 17% 29.82 in 10.0 mi ENE 3.5 mph - N/A   Clear
5:15 PM 75.2 °F - 24.8 °F 15% 29.82 in 10.0 mi ENE 4.6 mph - N/A   Clear
5:35 PM 75.2 °F - 24.8 °F 15% 29.82 in 10.0 mi Calm Calm - N/A   Clear
5:55 PM 75.2 °F - 24.8 °F 15% 29.81 in 10.0 mi North 8.1 mph - N/A   Clear
6:15 PM 75.2 °F - 24.8 °F 15% 29.81 in 10.0 mi East 3.5 mph - N/A   Clear
6:35 PM 75.2 °F - 24.8 °F 15% 29.81 in 10.0 mi NNW 5.8 mph - N/A   Clear
6:55 PM 75.2 °F - 24.8 °F 15% 29.81 in 10.0 mi North 10.4 mph - N/A   Clear
7:15 PM 75.2 °F - 26.6 °F 17% 29.82 in 10.0 mi NNE 10.4 mph - N/A   Clear
7:35 PM 75.2 °F - 28.4 °F 18% 29.82 in 10.0 mi NNE 11.5 mph - N/A   Clear
7:55 PM 73.4 °F - 28.4 °F 19% 29.82 in 10.0 mi NNE 12.7 mph 16.1 mph N/A   Clear
8:15 PM 73.4 °F - 28.4 °F 19% 29.83 in 10.0 mi NE 13.8 mph - N/A   Clear
8:35 PM 69.8 °F - 30.2 °F 23% 29.83 in 10.0 mi NE 9.2 mph - N/A   Clear
8:55 PM 66.2 °F - 30.2 °F 26% 29.84 in 10.0 mi ENE 8.1 mph - N/A   Clear
9:15 PM 66.2 °F - 28.4 °F 24% 29.84 in 10.0 mi East 9.2 mph - N/A   Clear
9:35 PM 62.6 °F - 28.4 °F 27% 29.85 in 10.0 mi East 8.1 mph - N/A   Clear
9:55 PM 55.4 °F - 28.4 °F 36% 29.86 in 10.0 mi ESE 8.1 mph - N/A   Clear
10:15 PM 55.4 °F - 28.4 °F 36% 29.86 in 10.0 mi ESE 6.9 mph - N/A   Clear
10:35 PM 55.4 °F - 28.4 °F 36% 29.87 in 10.0 mi ESE 6.9 mph - N/A   Clear
10:55 PM 55.4 °F - 28.4 °F 36% 29.87 in 10.0 mi SE 9.2 mph - N/A   Clear
11:15 PM 53.6 °F - 28.4 °F 38% 29.87 in 10.0 mi ESE 8.1 mph - N/A   Clear
11:35 PM 55.4 °F - 28.4 °F 36% 29.87 in 10.0 mi East 6.9 mph - N/A   Clear
11:55 PM 51.8 °F - 28.4 °F 41% 29.88 in 10.0 mi Calm Calm - N/A   Clear